Regional Weather Roundup
Issued by NWS

Home | Current Version | Previous Version | Text Only | Print | Product List | Glossary On
Versions: 1 2 3 4 5 6 7 8 9 10 11 12 13 14 15 16 17 18 19 20 21 22 23 24 25 26 27 28 29 30 31 32 33 34 35 36 37 38 39 40 41 42 43 44 45 46 47 48 49 50
000
ASUS43 KLSX 181157
RWRMO

WEATHER SUMMARY FOR MISSOURI
NATIONAL WEATHER SERVICE SPRINGFIELD MO
600 AM CST SAT NOV 18 2017

NOTE: "FAIR" INDICATES FEW OR NO CLOUDS BELOW 12,000 FEET WITH NO
       SIGNIFICANT WEATHER AND/OR OBSTRUCTIONS TO VISIBILITY.
       CURRENT SKY AND/OR WEATHER CONDITIONS ARE NOT AVAILABLE FOR
       CHILLICOTHE AND FARMINGTON.

MOZ001>031-035>038-043-044-053-054-181300-
...NORTHERN AND WESTERN MISSOURI...

CITY           SKY/WX    TMP DP  RH WIND       PRES   REMARKS
KANSAS CTY INT LGT RAIN  47  46  97 N21G31    29.54R
6HR MIN TEMP:  47; 6HR MAX TEMP:  60; 6HR PCP:  0.02;

LEE`S SUMMIT   LGT RAIN  50  50 100 N25G36    29.50R FOG
6HR MIN TEMP:  50; 6HR MAX TEMP:  62; 6HR PCP:  0.01;

ST JOSEPH      CLOUDY    45  42  89 N23G35    29.61R FOG
6HR MIN TEMP:  45; 6HR MAX TEMP:  57; 6HR PCP:  0.08;

CHILLICOTHE      N/A     47  45  93 N15G28    29.50R
6HR MIN TEMP:  47; 6HR MAX TEMP:  56; 6HR PCP:  0.04;

KIRKSVILLE     CLOUDY    45  45 100 N23G37    29.44R

$$
MOZ066>068-077>081-088>096-101>105-181300-
...SOUTHWEST MISSOURI...

CITY           SKY/WX    TMP DP  RH WIND       PRES   REMARKS
SPRINGFIELD    CLOUDY    69  61  75 SW20      29.42S
6HR MIN TEMP:  66; 6HR MAX TEMP:  71;

JOPLIN         PTCLDY    62  51  67 W24G41    29.48R
6HR MIN TEMP:  62; 6HR MAX TEMP:  73;


$$
MOZ032>034-039>042-045>050-055>058-069>072-181300-
...CENTRAL MISSOURI...

CITY           SKY/WX    TMP DP  RH WIND       PRES   REMARKS
COLUMBIA       NOT AVBL
JEFFERSON CITY CLOUDY    67  60  78 SE3       29.34F
6HR MIN TEMP:  66; 6HR MAX TEMP:  68;

ROLLA          PTCLDY    68  61  78 S13       29.39F
6HR MIN TEMP:  64; 6HR MAX TEMP:  68;

SEDALIA        CLOUDY    60  60 100 NW14G20   29.38R
6HR MIN TEMP:  58; 6HR MAX TEMP:  67;

WARRENSBURG    CLOUDY    54  52  94 N18G28    29.43R

$$
MOZ051-052-059>065-181300-
...EAST CENTRAL MISSOURI...

CITY           SKY/WX    TMP DP  RH WIND       PRES   REMARKS
ST LOUIS INTL  LGT RAIN  64  61  90 S13       29.37F
6HR MIN TEMP:  60; 6HR MAX TEMP:  65; 6HR PCP: TRACE;


$$
MOZ072>076-082>087-097>100-106>115-181300-
...SOUTH CENTRAL AND SOUTHEAST MISSOURI...

CITY           SKY/WX    TMP DP  RH WIND       PRES   REMARKS
CAPE GIRARDEAU LGT RAIN  65  60  84 S22G32    29.54S
6HR MIN TEMP:  64; 6HR MAX TEMP:  66; 6HR PCP: TRACE;

POPLAR BLUFF   CLOUDY    69  63  81 S18G31    29.50F
6HR MIN TEMP:  65; 6HR MAX TEMP:  69;

WEST PLAINS    CLOUDY    68  62  81 S12       29.48F
6HR MIN TEMP:  65; 6HR MAX TEMP:  68;


$$



USA.gov is the U.S. government's official web portal to all federal, state and local government web resources and services.